Tracking 35331 objects as of 14-Sep-2026
HD Live streaming from Space Station
objects crossing your sky now

FLOCK 3K 11


FLOCK 3K 11 is no longer on orbit
FLOCK 3K 11 is classified as:


NORAD ID: 43904
Int'l Code: 2018-111AE
Launch date: December 27, 2018
Source: United States (US)
Launch site: VOSTOCHNY COSMODROME (VOSTO)
Decay date: 2023-02-28
Your satellite tracking list
Your tracking list is empty




NASA's NSSDC Master Catalog

Two Line Element Set (TLE):
1 43904U 18111AE  23058.93866561  .04634679  22920-5  28398-2 0  9995
2 43904  97.1476 314.8800 0008435 172.4866 187.2189 16.18058668233243
Source of the keplerian elements: AFSPC